Location: Unspecified
(0.0000°N, 0.0000°E)
Time: 09:16:29
(UTC+00:00)

Explorer 11/Cluster Stage 4 - Pass Details

Date: 14 July 2020
Orbit: 467 x 1259 km, 28.8° (Epoch: 03 August)

Event Time Altitude Azimuth Distance (km) Brightness Sun altitude
Rises 19:57:29 0° 277° (W) 4,196 11.5 -25.8°
Reaches altitude 10° 20:00:54 10° 267° (W) 3,210 10.5 -26.6°
Maximum altitude 20:07:44 30° 210° (SSW) 1,988 8.6 -28.1°
Enters shadow 20:09:38 27° 186° (S) 2,064 8.5 -28.5°
Drops below altitude 10° 20:13:57 10° 152° (SSE) 2,899 - -29.5°
Sets 20:16:54 0° 141° (SE) 3,733 - -30.2°
